Location: Neuvy Saint Sepulchre
(46.5953°N, 1.8122°E)
Time: 18:31:28
(UTC+01:00)

ISS - Pass Details

Date: 01 December 2021
Orbit: 417 x 422 km, 51.6° (Epoch: 06 December)

Event Time Altitude Azimuth Distance (km) Brightness Sun altitude
Rises 18:41:45 0° 292° (WNW) 2,378 0.9 -15.7°
Reaches altitude 10° 18:43:56 10° 301° (WNW) 1,512 -0.3 -16.1°
Maximum altitude 18:47:10 40° 12° (NNE) 639 -3.1 -16.6°
Enters shadow 18:47:41 37° 37° (NE) 673 -3.1 -16.7°
